TimeEDT,TemperatureF,Dew PointF,Humidity,Sea Level PressureIn,VisibilityMPH,Wind Direction,Wind SpeedMPH,Gust SpeedMPH,PrecipitationIn,Events,Conditions,WindDirDegrees,DateUTC
12:53 AM,63.0,59.0,87,30.07,10.0,Calm,Calm,-,N/A,,Overcast,0,2013-09-16 04:53:00
1:53 AM,64.9,60.1,84,30.08,10.0,Calm,Calm,-,N/A,,Overcast,0,2013-09-16 05:53:00
2:53 AM,64.0,61.0,90,30.09,10.0,Calm,Calm,-,0.01,,Overcast,0,2013-09-16 06:53:00
3:53 AM,64.0,61.0,90,30.09,10.0,Calm,Calm,-,0.01,,Overcast,0,2013-09-16 07:53:00
4:53 AM,63.0,61.0,93,30.09,10.0,SW,3.5,-,0.00,Rain,Light Rain,220,2013-09-16 08:53:00
5:53 AM,64.0,61.0,90,30.10,10.0,Calm,Calm,-,N/A,,Overcast,0,2013-09-16 09:53:00
6:53 AM,63.0,61.0,93,30.13,9.0,North,4.6,-,N/A,,Overcast,360,2013-09-16 10:53:00
7:53 AM,63.0,61.0,93,30.14,8.0,NE,4.6,-,0.01,,Overcast,40,2013-09-16 11:53:00
8:53 AM,63.0,62.1,97,30.14,6.0,ESE,4.6,-,N/A,,Overcast,110,2013-09-16 12:53:00
9:53 AM,64.0,62.1,93,30.17,6.0,ENE,3.5,-,N/A,,Overcast,60,2013-09-16 13:53:00
10:53 AM,66.0,61.0,84,30.19,9.0,ENE,3.5,-,N/A,,Overcast,70,2013-09-16 14:53:00
11:53 AM,68.0,61.0,78,30.21,10.0,East,4.6,-,N/A,,Overcast,80,2013-09-16 15:53:00
12:26 PM,71.6,60.8,69,30.22,10.0,NE,4.6,-,N/A,,Overcast,50,2013-09-16 16:26:00
12:53 PM,71.1,60.1,68,30.21,10.0,NE,5.8,-,N/A,,Overcast,40,2013-09-16 16:53:00
1:02 PM,71.6,60.8,69,30.22,10.0,ENE,8.1,-,N/A,,Overcast,70,2013-09-16 17:02:00
1:11 PM,69.8,59.0,68,30.22,10.0,NNE,6.9,-,N/A,,Overcast,20,2013-09-16 17:11:00
1:48 PM,71.6,59.0,64,30.22,10.0,NE,6.9,-,N/A,,Overcast,50,2013-09-16 17:48:00
1:53 PM,72.0,59.0,64,30.21,10.0,NNE,5.8,-,N/A,,Overcast,20,2013-09-16 17:53:00
2:53 PM,72.0,59.0,64,30.20,10.0,Variable,5.8,-,N/A,,Overcast,0,2013-09-16 18:53:00
3:12 PM,71.6,59.0,64,30.21,10.0,NNE,8.1,-,N/A,,Overcast,30,2013-09-16 19:12:00
3:20 PM,71.6,59.0,64,30.21,10.0,NNE,6.9,-,N/A,,Overcast,30,2013-09-16 19:20:00
3:53 PM,71.1,60.1,68,30.19,10.0,Variable,6.9,-,N/A,,Overcast,0,2013-09-16 19:53:00
4:53 PM,73.0,59.0,61,30.19,10.0,NNE,8.1,-,N/A,,Overcast,20,2013-09-16 20:53:00
5:53 PM,71.1,57.9,63,30.19,10.0,NE,8.1,-,N/A,,Overcast,40,2013-09-16 21:53:00
6:53 PM,69.1,57.9,68,30.20,10.0,NE,8.1,-,N/A,,Overcast,40,2013-09-16 22:53:00
7:53 PM,68.0,57.0,68,30.19,10.0,NE,6.9,-,N/A,,Overcast,40,2013-09-16 23:53:00
8:53 PM,66.9,57.9,73,30.21,10.0,NE,5.8,-,N/A,,Overcast,40,2013-09-17 00:53:00
9:53 PM,64.0,57.0,78,30.23,10.0,NE,3.5,-,N/A,,Clear,50,2013-09-17 01:53:00
10:53 PM,61.0,55.9,83,30.24,10.0,East,3.5,-,N/A,,Clear,80,2013-09-17 02:53:00
11:53 PM,60.1,55.9,86,30.25,10.0,NE,3.5,-,N/A,,Clear,40,2013-09-17 03:53:00